[[{"header":{"parameterUnit":"m.s-1","parameterCategory":2,"la1":30.2991,"la2":30.254,"lo1":-89.0895,"lo2":-89.0444,"dy":0.0017,"dx":0.0017,"nx":28,"ny":28,"refTime":"2025-11-13T03:00:00:Z","depth":"0","parameterNumber":2,"parameterNumberName":"U-component_of_CURRENTS"},"data":[0,0,0,0,0,0,0,0,0,0,0,0,0,0,0,0,0,0,0,0,0,0,0,0,0,0,0,0,0,0,0,0,0,0,0,0,0,0,0,0,0,0,0,0,0,0,0,0,0,0,0,0,0,0,0,0,0,0,0.0951,0.0951,0,0.097,0.097,0.0971,0.0962,0.0961,0.0961,0.096,0.0984,0.0985,0.0986,0,0,0,0,0,0,0,0,0,0,0,0,0,0.0936,0.0936,0.0951,0.0951,0.0951,0.097,0.097,0.0971,0.0962,0.0961,0.096,0.096,0.0984,0.0985,0.0986,0,0,0,0,0,0,0,0,0,0,0,0,0,0.0949,0.0936,0.0951,0.0948,0.0947,0.097,0.097,0.0971,0.0962,0.0961,0.096,0.0959,0.0983,0.0985,0.0987,0.1018,0,0,0.0992,0.0993,0,0,0,0,0,0,0,0,0.0948,0.095,0.0948,0.0948,0.0948,0.0961,0.0974,0.0986,0.0962,0.0958,0.096,0.0959,0.0976,0.0979,0.0987,0.1019,0.102,0.0993,0.0994,0.0994,0.0995,0,0,0,0,0,0,0,0.0947,0.0949,0.096,0.0948,0.0948,0.0955,0.0956,0.0976,0.0974,0.0959,0.0958,0.0957,0.0976,0.0985,0.0987,0.102,0.0992,0.0994,0.0995,0.0996,0.1122,0.1124,0,0,0,0,0,0,0.0941,0.0948,0.096,0.0961,0.0944,0.0956,0.0957,0.0959,0.0974,0.0974,0.0958,0.0957,0.0982,0.0985,0.0988,0.1069,0.0994,0.0996,0.0997,0.1119,0.1122,0.1125,0,0,0,0,0,0,0.0941,0.0942,0.0959,0.0953,0.0956,0.0957,0.096,0.096,0.0972,0.0973,0.0974,0.0969,0.0982,0.0986,0.1026,0.1068,0.0997,0.0999,0.1117,0.112,0.1123,0.1202,0,0,0,0,0,0,0.094,0.0942,0.0951,0.0953,0.0956,0.0985,0.096,0.0961,0.0972,0.0971,0.0983,0.0984,0.0981,0.1024,0.1028,0.1069,0.1,0.1114,0.1118,0.1122,0.1196,0.1207,0.1217,0,0,0,0,0,0.094,0.0953,0.0951,0.0953,0.0965,0.0986,0.0989,0.0987,0.0973,0.0992,0.1004,0.0984,0.1053,0.1028,0.1032,0.1074,0.1112,0.1117,0.1122,0.1192,0.1205,0.1217,0,0,0,0,0,0,0.0952,0.0954,0.0951,0.0965,0.098,0.0984,0.0999,0.0995,0.1019,0.1018,0.1013,0.1017,0.1067,0.1063,0.1035,0.1124,0.108,0.1086,0.1131,0.1144,0.1154,0.1146,0.1002,0,0,0,0,0,0.0959,0.0966,0.0975,0.0986,0.0996,0.1,0.1009,0.101,0.1025,0.1033,0.1043,0.1062,0.1093,0.111,0.1132,0.1183,0.119,0.1213,0.1223,0.1232,0.123,0.1284,0.1299,0.1141,0.1141,0.1141,0,0,0.0963,0.0966,0.0969,0.0989,0.0998,0.1028,0.1004,0.1025,0.1054,0.1034,0.1082,0.1096,0.1114,0.1171,0.1194,0.1173,0.1287,0.1238,0.1245,0.1239,0.1291,0.1306,0.1319,0.1144,0.1144,0.1143,0,0,0.0979,0.0984,0.1,0.102,0.1041,0.1051,0.106,0.1079,0.1095,0.1141,0.114,0.118,0.1219,0.1248,0.1265,0.1346,0.1337,0.1354,0.1404,0.1457,0.147,0.1482,0.1534,0.1549,0.1362,0.1363,0.1363,0,0.0984,0.1006,0.101,0.1039,0.1058,0.1065,0.1097,0.1124,0.1155,0.118,0.1166,0.1248,0.1258,0.1338,0.1364,0.137,0.1394,0.1354,0.147,0.1481,0.1491,0.1542,0.1558,0.1367,0.1367,0.1366,0.1366,0,0.1017,0.104,0.1055,0.1092,0.1119,0.1148,0.1182,0.1218,0.1233,0.1256,0.133,0.1356,0.1401,0.1421,0.1415,0.1504,0.1497,0.1474,0.1435,0.1512,0.1561,0.1576,0.1373,0.1372,0.137,0.1369,0,0,0.1009,0.1065,0.1071,0.1096,0.1149,0.1171,0.1236,0.1293,0.1336,0.138,0.1443,0.1502,0.1508,0.1528,0.1539,0.1585,0.1685,0.1562,0.1563,0.1608,0.181,0.1857,0.1877,0.1683,0.1685,0.1687,0.1822,0,0.1033,0.1083,0.1114,0.1173,0.1204,0.1244,0.1303,0.1358,0.1404,0.1472,0.1517,0.1578,0.1554,0.1584,0.163,0.1669,0.1725,0.165,0.1733,0.1736,0.1763,0.1896,0.2022,0.2157,0.1837,0.1839,0.1841,0,0.106,0.1087,0.1139,0.121,0.1229,0.127,0.1357,0.1414,0.1512,0.155,0.162,0.1651,0.174,0.1697,0.1813,0.1767,0.1794,0.1819,0.1824,0.1845,0.1811,0.2025,0.2196,0.2196,0.1864,0.1862,0.1861,0,0.1045,0.1111,0.1146,0.117,0.125,0.1287,0.1338,0.1432,0.1494,0.1603,0.1659,0.1752,0.181,0.1864,0.1913,0.1871,0.2034,0.1982,0.2054,0.2057,0.2169,0.2177,0.2343,0.2066,0.2065,0.2065,0.2065,0,0.1059,0.109,0.1136,0.116,0.1216,0.1275,0.1358,0.1425,0.1532,0.1622,0.1692,0.1783,0.1852,0.1947,0.1968,0.2082,0.2086,0.2098,0.2112,0.2202,0.2212,0.2214,0.2101,0.207,0.2069,0.2068,0.2067,0,0.104,0.1075,0.112,0.1188,0.1211,0.1251,0.1363,0.1426,0.1526,0.1648,0.1689,0.1833,0.1972,0.2046,0.2156,0.2171,0.223,0.2283,0.2386,0.2409,0.2458,0.2343,0.2349,0.2237,0.2402,0.2404,0.2406,0,0.1033,0.105,0.112,0.1148,0.1178,0.1243,0.1299,0.1411,0.1488,0.1682,0.1746,0.1918,0.2064,0.2266,0.2364,0.2477,0.2327,0.26,0.2538,0.2522,0.2402,0.2232,0.2121,0.2728,0.2733,0.2736,0.2739,0,0.1014,0.1037,0.1071,0.1122,0.1174,0.1249,0.1338,0.1399,0.1547,0.1671,0.1866,0.2005,0.2254,0.2468,0.2609,0.2673,0.2531,0.2673,0.2654,0.268,0.251,0.239,0.2556,0.2771,0.2768,0.2765,0.2764,0.2762,0.0988,0.1006,0.1048,0.1098,0.1155,0.1244,0.1313,0.1435,0.1579,0.1782,0.1908,0.2149,0.2477,0.2736,0.2804,0.2994,0.2724,0.2988,0.2855,0.2691,0.2565,0.2792,0.3007,0.3005,0.3003,0.3002,0.3001,0,0.0949,0.0981,0.1026,0.1094,0.114,0.1195,0.1328,0.1412,0.1581,0.1811,0.2,0.2391,0.2696,0.2938,0.3221,0.3207,0.3062,0.3136,0.2964,0.2837,0.3121,0.3124,0.3379,0.3379,0.3379,0.3379,0.3379,0.3379,0.0935,0.0958,0.0991,0.1054,0.1102,0.1197,0.1276,0.1422,0.1599,0.1906,0.2156,0.235,0.2751,0.3171,0.3379,0.3338,0.3027,0.3018,0.2759,0.3049,0.3026,0.3004,0.2991,0.3214,0.3213,0.2537,0.2532,0.2528]},{"header":{"parameterUnit":"m.s-1","parameterCategory":2,"la1":30.2991,"la2":30.254,"lo1":-89.0895,"lo2":-89.0444,"dy":0.0017,"dx":0.0017,"nx":28,"ny":28,"refTime":"2025-11-13T03:00:00:Z","depth":"0","parameterNumber":3,"parameterNumberName":"V-component_of_CURRENTS"},"data":[0,0,0,0,0,0,0,0,0,0,0,0,0,0,0,0,0,0,0,0,0,0,0,0,0,0,0,0,0,0,0,0,0,0,0,0,0,0,0,0,0,0,0,0,0,0,0,0,0,0,0,0,0,0,0,0,0,0,-0.0933,-0.0932,0,-0.0883,-0.0882,-0.0881,-0.0917,-0.0919,-0.0921,-0.0922,-0.0972,-0.0972,-0.0971,0,0,0,0,0,0,0,0,0,0,0,0,0,-0.101,-0.1008,-0.0933,-0.0932,-0.0932,-0.0883,-0.0882,-0.0881,-0.0917,-0.0919,-0.0921,-0.0923,-0.0972,-0.0972,-0.0971,0,0,0,0,0,0,0,0,0,0,0,0,0,-0.0968,-0.1008,-0.0933,-0.0945,-0.0946,-0.0883,-0.0882,-0.0881,-0.0916,-0.0919,-0.0922,-0.0924,-0.0972,-0.0972,-0.0971,-0.0915,0,0,-0.097,-0.097,0,0,0,0,0,0,0,0,-0.097,-0.0965,-0.0944,-0.0944,-0.0945,-0.0911,-0.0928,-0.0898,-0.0916,-0.0925,-0.0922,-0.0925,-0.096,-0.0961,-0.0941,-0.0917,-0.0919,-0.097,-0.097,-0.0969,-0.0969,0,0,0,0,0,0,0,-0.0973,-0.0967,-0.0911,-0.0943,-0.0944,-0.0937,-0.0934,-0.0921,-0.0929,-0.0925,-0.0928,-0.0925,-0.0961,-0.0941,-0.0943,-0.092,-0.097,-0.0969,-0.0969,-0.0969,-0.0941,-0.094,0,0,0,0,0,0,-0.0982,-0.0969,-0.0913,-0.091,-0.0967,-0.0934,-0.093,-0.0917,-0.0927,-0.093,-0.0922,-0.0927,-0.0941,-0.0943,-0.0945,-0.0936,-0.0969,-0.0969,-0.0969,-0.0941,-0.0941,-0.094,0,0,0,0,0,0,-0.0984,-0.0977,-0.0915,-0.0941,-0.0933,-0.093,-0.0915,-0.0915,-0.09,-0.0924,-0.093,-0.0909,-0.0943,-0.0946,-0.094,-0.0937,-0.0969,-0.0968,-0.0942,-0.0941,-0.094,-0.0882,0,0,0,0,0,0,-0.0986,-0.0978,-0.0962,-0.0941,-0.0932,-0.0869,-0.0912,-0.0912,-0.0895,-0.09,-0.0914,-0.0921,-0.0945,-0.094,-0.0939,-0.0937,-0.0968,-0.0942,-0.0941,-0.0941,-0.0884,-0.0879,-0.0875,0,0,0,0,0,-0.0989,-0.0945,-0.0961,-0.0954,-0.0913,-0.0867,-0.086,-0.0867,-0.0892,-0.0867,-0.0891,-0.0921,-0.0936,-0.0938,-0.0937,-0.0935,-0.0943,-0.0942,-0.0941,-0.0886,-0.088,-0.0875,0,0,0,0,0,0,-0.0959,-0.0945,-0.0961,-0.0915,-0.0896,-0.0874,-0.0846,-0.0856,-0.0848,-0.0863,-0.0896,-0.0903,-0.0901,-0.0918,-0.0921,-0.0927,-0.0951,-0.0949,-0.091,-0.0904,-0.0899,-0.0907,-0.0967,0,0,0,0,0,-0.0948,-0.0922,-0.0908,-0.0872,-0.086,-0.0854,-0.0835,-0.0841,-0.0837,-0.0836,-0.0852,-0.0876,-0.0889,-0.0898,-0.0906,-0.0891,-0.0929,-0.0896,-0.0891,-0.0887,-0.0894,-0.0942,-0.0942,-0.0937,-0.0937,-0.0937,0,0,-0.0927,-0.0916,-0.0901,-0.0866,-0.0852,-0.0824,-0.0848,-0.0813,-0.0805,-0.0841,-0.0831,-0.0849,-0.088,-0.0876,-0.0879,-0.0895,-0.0906,-0.0886,-0.0882,-0.0892,-0.0941,-0.0941,-0.0942,-0.0936,-0.0936,-0.0936,0,0,-0.0872,-0.0862,-0.0827,-0.081,-0.079,-0.0785,-0.0776,-0.0757,-0.0763,-0.0744,-0.0787,-0.0803,-0.0804,-0.0837,-0.0854,-0.0823,-0.0874,-0.0829,-0.0814,-0.0859,-0.086,-0.0862,-0.0899,-0.0905,-0.0832,-0.0832,-0.0832,0,-0.0858,-0.0809,-0.0805,-0.0773,-0.076,-0.077,-0.0737,-0.0731,-0.0719,-0.0726,-0.074,-0.0769,-0.0791,-0.0814,-0.0813,-0.0813,-0.0846,-0.0831,-0.0854,-0.0856,-0.0859,-0.0897,-0.0904,-0.0829,-0.083,-0.083,-0.083,0,-0.0786,-0.075,-0.0721,-0.07,-0.0683,-0.0645,-0.0654,-0.0644,-0.0659,-0.0668,-0.0683,-0.0712,-0.0738,-0.0749,-0.0771,-0.0802,-0.0821,-0.0836,-0.0868,-0.0856,-0.0897,-0.0905,-0.0825,-0.0826,-0.0827,-0.0828,0,0,-0.0759,-0.0686,-0.0681,-0.0662,-0.0643,-0.0621,-0.0612,-0.0603,-0.0604,-0.0616,-0.0622,-0.0657,-0.0684,-0.0706,-0.0742,-0.0786,-0.0826,-0.0818,-0.0822,-0.0855,-0.0925,-0.0944,-0.0955,-0.0848,-0.0849,-0.085,-0.0943,0,-0.0711,-0.0631,-0.0618,-0.0563,-0.0526,-0.0542,-0.0534,-0.0541,-0.0552,-0.0558,-0.0613,-0.0627,-0.0666,-0.068,-0.0729,-0.08,-0.0847,-0.08,-0.0934,-0.0938,-0.0955,-0.0964,-0.0896,-0.0973,-0.0951,-0.0952,-0.0953,0,-0.0664,-0.0613,-0.0544,-0.05,-0.0489,-0.0469,-0.047,-0.0463,-0.0489,-0.0502,-0.0537,-0.0573,-0.0637,-0.0668,-0.0798,-0.0767,-0.0843,-0.0903,-0.0908,-0.0956,-0.0971,-0.0985,-0.099,-0.1005,-0.0966,-0.0965,-0.0965,0,-0.0655,-0.0573,-0.0518,-0.0502,-0.0454,-0.0442,-0.043,-0.0446,-0.0445,-0.0471,-0.0477,-0.055,-0.0592,-0.0694,-0.0815,-0.081,-0.0961,-0.0968,-0.1058,-0.1059,-0.1044,-0.1043,-0.1081,-0.1065,-0.1065,-0.1065,-0.1064,0,-0.0618,-0.0569,-0.0505,-0.0472,-0.0423,-0.0418,-0.0385,-0.0388,-0.0399,-0.0406,-0.0451,-0.0476,-0.0605,-0.07,-0.0807,-0.096,-0.0959,-0.1064,-0.109,-0.102,-0.1016,-0.1064,-0.1099,-0.1068,-0.1067,-0.1067,-0.1066,0,-0.0602,-0.0561,-0.049,-0.0428,-0.0411,-0.0382,-0.0343,-0.0326,-0.0346,-0.0358,-0.0368,-0.0437,-0.056,-0.0691,-0.0861,-0.0954,-0.1133,-0.1146,-0.1052,-0.1065,-0.1156,-0.1191,-0.1381,-0.144,-0.1256,-0.1257,-0.1258,0,-0.0575,-0.0539,-0.0459,-0.0427,-0.0389,-0.0342,-0.0313,-0.0304,-0.0296,-0.034,-0.0351,-0.0451,-0.0511,-0.0748,-0.0929,-0.1117,-0.1185,-0.1177,-0.116,-0.1162,-0.1219,-0.1299,-0.134,-0.1111,-0.1111,-0.111,-0.111,0,-0.0529,-0.0511,-0.0453,-0.0389,-0.0345,-0.029,-0.0253,-0.024,-0.0256,-0.0257,-0.0299,-0.0342,-0.0558,-0.0687,-0.0929,-0.1069,-0.1204,-0.1179,-0.1203,-0.1136,-0.1205,-0.1271,-0.1046,-0.1107,-0.1108,-0.1108,-0.1108,-0.1108,-0.0503,-0.0464,-0.0412,-0.0352,-0.0297,-0.0255,-0.0217,-0.0189,-0.0167,-0.016,-0.0223,-0.0207,-0.038,-0.0693,-0.0924,-0.1168,-0.1247,-0.1185,-0.1235,-0.1323,-0.1358,-0.1132,-0.121,-0.1211,-0.1212,-0.1212,-0.1213,0,-0.0487,-0.0445,-0.0382,-0.0312,-0.0256,-0.0238,-0.0189,-0.0153,-0.0115,-0.0053,-0.005,-0.0017,-0.0234,-0.0503,-0.0834,-0.1085,-0.1269,-0.1223,-0.1276,-0.1325,-0.1115,-0.1079,-0.1103,-0.1103,-0.1103,-0.1103,-0.1103,-0.1103,-0.0479,-0.0421,-0.0388,-0.03,-0.0251,-0.0183,-0.0157,-0.0094,-0.0022,0.0118,0.0243,0.0325,0.031,-0.0329,-0.0814,-0.1019,-0.1236,-0.1351,-0.148,-0.1241,-0.1239,-0.1238,-0.1209,-0.126,-0.126,-0.1646,-0.1649,-0.1651]}],[{"header":{"parameterUnit":"m.s-1","parameterCategory":2,"la1":30.2991,"la2":30.254,"lo1":-89.0895,"lo2":-89.0444,"dy":0.0017,"dx":0.0017,"nx":28,"ny":28,"refTime":"2025-11-13T03:00:00:Z","depth":"2","parameterNumber":2,"parameterNumberName":"U-component_of_CURRENTS"},"data":[0,0,0,0,0,0,0,0,0,0,0,0,0,0,0,0,0,0,0,0,0,0,0,0,0,0,0,0,0,0,0,0,0,0,0,0,0,0,0,0,0,0,0,0,0,0,0,0,0,0,0,0,0,0,0,0,0,0,0.1774,0.1774,0,0.1843,0.1844,0.1845,0.1852,0.1851,0.185,0.185,0.1901,0.1903,0.1905,0,0,0,0,0,0,0,0,0,0,0,0,0,0.1668,0.167,0.1774,0.1775,0.1775,0.1843,0.1844,0.1845,0.1852,0.1851,0.185,0.185,0.19,0.1903,0.1905,0,0,0,0,0,0,0,0,0,0,0,0,0,0.1723,0.1671,0.1773,0.1788,0.179,0.1843,0.1844,0.1845,0.1852,0.1851,0.185,0.1849,0.19,0.1903,0.1905,0.1943,0,0,0.1914,0.1916,0,0,0,0,0,0,0,0,0.172,0.1727,0.1785,0.1787,0.1789,0.1838,0.1826,0.1877,0.1852,0.1828,0.185,0.1849,0.188,0.1884,0.1899,0.1946,0.1948,0.1915,0.1917,0.1918,0.1919,0,0,0,0,0,0,0,0.1716,0.1724,0.18,0.1786,0.1789,0.1798,0.1804,0.1836,0.1857,0.183,0.1831,0.184,0.188,0.1896,0.19,0.1949,0.1915,0.1917,0.1919,0.192,0.2076,0.2078,0,0,0,0,0,0,0.1709,0.172,0.1798,0.1803,0.1752,0.1801,0.1808,0.1823,0.1857,0.1862,0.1841,0.184,0.1891,0.1896,0.1902,0.1987,0.1918,0.1921,0.1922,0.2074,0.2077,0.2079,0,0,0,0,0,0,0.1707,0.1716,0.1795,0.1763,0.1774,0.1803,0.1821,0.1825,0.1843,0.1866,0.187,0.1854,0.1891,0.1898,0.1952,0.1987,0.1922,0.1925,0.2071,0.2075,0.2078,0.2132,0,0,0,0,0,0,0.1704,0.1715,0.1726,0.1763,0.1775,0.1838,0.1822,0.1827,0.185,0.185,0.1879,0.1883,0.189,0.1948,0.1955,0.199,0.1927,0.2068,0.2073,0.2077,0.2127,0.2137,0.2145,0,0,0,0,0,0.17,0.1723,0.1726,0.1735,0.1789,0.184,0.1848,0.1864,0.1852,0.1873,0.1899,0.1882,0.1981,0.1953,0.1961,0.1996,0.2066,0.2071,0.2076,0.2123,0.2135,0.2145,0,0,0,0,0,0,0.1689,0.1728,0.1731,0.1766,0.1803,0.1841,0.1862,0.187,0.1906,0.1906,0.1915,0.1923,0.1987,0.1989,0.1957,0.2057,0.202,0.2027,0.2053,0.2064,0.2073,0.2069,0.1929,0,0,0,0,0,0.1691,0.1716,0.1755,0.1785,0.1802,0.1831,0.1852,0.1868,0.1903,0.1917,0.1937,0.1968,0.2017,0.2035,0.2075,0.2126,0.2125,0.2155,0.2164,0.2172,0.2177,0.222,0.2233,0.2097,0.2097,0.2096,0,0,0.1695,0.172,0.1734,0.1784,0.1809,0.1846,0.1841,0.1883,0.1917,0.1919,0.197,0.2004,0.2041,0.2107,0.2133,0.2109,0.221,0.2178,0.2184,0.2186,0.2227,0.224,0.2252,0.21,0.21,0.2099,0,0,0.1718,0.1739,0.1764,0.1796,0.1841,0.1866,0.1878,0.1923,0.1946,0.2005,0.2023,0.208,0.2133,0.2176,0.2202,0.2285,0.2262,0.2294,0.2331,0.2373,0.2384,0.2394,0.2399,0.2409,0.2291,0.2291,0.2291,0,0.1719,0.1757,0.1782,0.1817,0.1841,0.1872,0.1907,0.1946,0.2006,0.2033,0.2026,0.2138,0.2169,0.2257,0.2294,0.2304,0.231,0.2282,0.2383,0.2393,0.2402,0.2405,0.2415,0.2294,0.2294,0.2294,0.2293,0,0.1761,0.179,0.1811,0.1858,0.1892,0.1932,0.1981,0.202,0.2044,0.2082,0.2169,0.2224,0.2283,0.2313,0.2332,0.2422,0.2399,0.2392,0.2348,0.2418,0.2418,0.2427,0.2299,0.2298,0.2297,0.2296,0,0,0.177,0.1825,0.1833,0.1847,0.1914,0.1942,0.2007,0.2073,0.2104,0.2177,0.2225,0.2338,0.2359,0.2392,0.2426,0.2474,0.2549,0.2464,0.2465,0.2457,0.2619,0.2478,0.2474,0.2558,0.2561,0.2563,0.2589,0,0.1793,0.1842,0.1872,0.192,0.1947,0.199,0.2039,0.2104,0.2155,0.2211,0.2291,0.2357,0.2391,0.2421,0.2483,0.2539,0.2578,0.254,0.2564,0.2565,0.242,0.2482,0.2182,0.217,0.2598,0.2599,0.26,0,0.183,0.1852,0.1895,0.1933,0.1947,0.1979,0.2043,0.2095,0.219,0.2231,0.2317,0.2367,0.248,0.2477,0.2606,0.2579,0.2608,0.2638,0.264,0.2494,0.2441,0.2174,0.2171,0.2615,0.2614,0.2613,0.2612,0,0.1821,0.1869,0.1893,0.1911,0.1965,0.1985,0.2018,0.2102,0.2142,0.2247,0.2281,0.2406,0.2466,0.2544,0.2625,0.262,0.2732,0.2721,0.2616,0.2605,0.2347,0.2308,0.2795,0.2795,0.2795,0.2795,0.2795,0,0.1842,0.1862,0.1882,0.1897,0.1914,0.1961,0.1996,0.2052,0.2128,0.2177,0.2286,0.2341,0.249,0.2569,0.2628,0.2647,0.2734,0.263,0.2611,0.2355,0.2319,0.2704,0.2693,0.2796,0.2796,0.2795,0.2795,0,0.1847,0.1864,0.1881,0.1908,0.1912,0.1925,0.1967,0.1993,0.2075,0.2139,0.2175,0.2316,0.2416,0.2525,0.2647,0.2628,0.267,0.2649,0.2322,0.2263,0.251,0.2502,0.2527,0.2523,0.2519,0.2516,0.2513,0,0.1862,0.1869,0.187,0.186,0.1869,0.1886,0.1896,0.1966,0.1993,0.2114,0.2138,0.2259,0.2282,0.2387,0.2365,0.2385,0.2589,0.2173,0.2109,0.2508,0.2488,0.2486,0.2483,0.1789,0.1781,0.1774,0.1769,0,0.187,0.186,0.1855,0.1825,0.1818,0.1816,0.1834,0.184,0.1924,0.1956,0.2003,0.2018,0.2057,0.1943,0.197,0.1955,0.2142,0.203,0.2546,0.1899,0.1812,0.1793,0.1815,0.1707,0.1713,0.1718,0.1721,0.1724,0.1854,0.1832,0.1798,0.1766,0.1756,0.1721,0.1689,0.1694,0.1685,0.1664,0.1768,0.1686,0.165,0.1494,0.1525,0.1577,0.1687,0.1663,0.1684,0.1713,0.1618,0.1529,0.1352,0.1355,0.1359,0.1362,0.1364,0,0.1795,0.1764,0.1737,0.1665,0.161,0.1652,0.1622,0.1531,0.145,0.1438,0.1386,0.1138,0.1018,0.1135,0.1039,0.1038,0.104,0.1106,0.1096,0.1148,0.1197,0.1081,0.067,0.0671,0.0671,0.0671,0,0,0.1753,0.1679,0.1649,0.1521,0.1494,0.14,0.1369,0.1232,0.1162,0.0981,0.09,0.0818,0.0905,0.0718,0.0705,0.0721,0.0953,0.069,0.1199,0.1224,0.1276,0.1418,0.1283,0,0,0,0,0]},{"header":{"parameterUnit":"m.s-1","parameterCategory":2,"la1":30.2991,"la2":30.254,"lo1":-89.0895,"lo2":-89.0444,"dy":0.0017,"dx":0.0017,"nx":28,"ny":28,"refTime":"2025-11-13T03:00:00:Z","depth":"2","parameterNumber":3,"parameterNumberName":"V-component_of_CURRENTS"},"data":[0,0,0,0,0,0,0,0,0,0,0,0,0,0,0,0,0,0,0,0,0,0,0,0,0,0,0,0,0,0,0,0,0,0,0,0,0,0,0,0,0,0,0,0,0,0,0,0,0,0,0,0,0,0,0,0,0,0,0.0335,0.0334,0,0.0292,0.0292,0.0291,0.0239,0.0238,0.0237,0.0237,0.0123,0.0121,0.0119,0,0,0,0,0,0,0,0,0,0,0,0,0,0.0353,0.0353,0.0335,0.0334,0.0334,0.0293,0.0292,0.0291,0.0239,0.0238,0.0237,0.0236,0.0124,0.0121,0.0119,0,0,0,0,0,0,0,0,0,0,0,0,0,0.0331,0.0353,0.0335,0.0303,0.03,0.0293,0.0292,0.0291,0.0239,0.0238,0.0237,0.0236,0.0125,0.0122,0.0118,0.012,0,0,0.0108,0.0106,0,0,0,0,0,0,0,0,0.0332,0.033,0.0308,0.0305,0.0302,0.027,0.0257,0.023,0.024,0.0262,0.0237,0.0235,0.0167,0.016,0.0155,0.0115,0.011,0.0107,0.0105,0.0104,0.0103,0,0,0,0,0,0,0,0.0334,0.0332,0.0317,0.0308,0.0304,0.0286,0.0281,0.0252,0.0219,0.026,0.0256,0.0253,0.0165,0.0158,0.0152,0.0108,0.0107,0.0104,0.0102,0.0101,0.004,0.0041,0,0,0,0,0,0,0.0343,0.0333,0.0318,0.0316,0.0315,0.0286,0.0281,0.0281,0.0221,0.0212,0.0254,0.025,0.0165,0.0156,0.0147,0.0148,0.0104,0.0101,0.0099,0.004,0.0041,0.0041,0,0,0,0,0,0,0.0344,0.0342,0.032,0.0324,0.032,0.0287,0.0287,0.0281,0.0273,0.0218,0.0206,0.0252,0.0164,0.0152,0.0129,0.0143,0.0099,0.0096,0.0039,0.004,0.0041,0.0147,0,0,0,0,0,0,0.0344,0.0343,0.0347,0.0325,0.032,0.0328,0.0288,0.0281,0.0273,0.0268,0.0213,0.0201,0.0162,0.0135,0.0126,0.0137,0.0093,0.0039,0.004,0.0041,0.0143,0.0151,0.0159,0,0,0,0,0,0.0345,0.0359,0.0348,0.0346,0.0327,0.0329,0.0325,0.0297,0.0274,0.0283,0.0243,0.0203,0.0133,0.0133,0.0122,0.0133,0.0038,0.0039,0.004,0.014,0.015,0.0158,0,0,0,0,0,0,0.0369,0.0354,0.0341,0.0349,0.0344,0.032,0.0323,0.0304,0.0281,0.0273,0.0215,0.0202,0.0185,0.0145,0.0146,0.0116,0.0076,0.0076,0.0155,0.0165,0.0172,0.0201,0.009,0,0,0,0,0,0.0378,0.0383,0.0369,0.0376,0.0375,0.0351,0.0347,0.0333,0.0309,0.0298,0.026,0.0215,0.0183,0.0163,0.013,0.0119,0.008,0.0114,0.0122,0.0129,0.0145,0.0101,0.0106,0.0044,0.0044,0.0044,0,0,0.039,0.0382,0.0385,0.0382,0.0372,0.0384,0.0346,0.035,0.0358,0.0289,0.0284,0.0244,0.0186,0.0175,0.0162,0.0142,0.0126,0.0131,0.0137,0.0149,0.0102,0.0108,0.0114,0.0045,0.0045,0.0045,0,0,0.042,0.041,0.0426,0.0428,0.0424,0.0413,0.0418,0.0402,0.0392,0.0387,0.0337,0.0313,0.026,0.0231,0.0204,0.0234,0.0171,0.0214,0.0276,0.0234,0.0239,0.0243,0.0205,0.0205,0.0216,0.0216,0.0216,0,0.0433,0.045,0.0433,0.0451,0.0459,0.043,0.0456,0.0446,0.0426,0.0429,0.0397,0.0339,0.0289,0.0277,0.0286,0.0254,0.0219,0.0249,0.0246,0.0249,0.0251,0.0211,0.021,0.0221,0.0221,0.022,0.022,0,0.0476,0.0491,0.0503,0.0514,0.0524,0.0543,0.0532,0.0539,0.0519,0.0508,0.0497,0.0437,0.0404,0.0379,0.0341,0.0337,0.0303,0.0264,0.0229,0.0264,0.0219,0.0216,0.0229,0.0227,0.0225,0.0224,0,0,0.0499,0.0527,0.0531,0.0553,0.0562,0.0576,0.0598,0.0614,0.0636,0.0603,0.0622,0.0564,0.0536,0.0505,0.045,0.0414,0.0397,0.0355,0.035,0.033,0.0306,0.0289,0.0282,0.0356,0.0356,0.0355,0.027,0,0.0537,0.0583,0.059,0.0642,0.0667,0.0665,0.0691,0.0703,0.0699,0.0711,0.0655,0.0646,0.058,0.0568,0.0524,0.0433,0.0392,0.0424,0.0264,0.026,0.025,0.0279,0.0241,0.0163,0.0266,0.0266,0.0265,0,0.0576,0.0603,0.0656,0.0711,0.0724,0.0752,0.08,0.0824,0.0834,0.0833,0.0818,0.0772,0.0731,0.0657,0.0529,0.0553,0.0444,0.0363,0.0357,0.0304,0.0236,0.0141,0.0152,0.0258,0.0259,0.0259,0.026,0,0.0595,0.0653,0.0697,0.0714,0.0765,0.0799,0.083,0.0861,0.0895,0.0913,0.093,0.0873,0.0841,0.0714,0.0555,0.054,0.0402,0.0352,0.0233,0.023,0.0149,0.014,0.0253,0.0254,0.0254,0.0254,0.0254,0,0.0627,0.0665,0.0712,0.0735,0.0802,0.0834,0.0908,0.0934,0.0982,0.1035,0.0992,0.1005,0.0852,0.0754,0.0596,0.0418,0.0428,0.0258,0.0212,0.0185,0.018,0.0221,0.0218,0.0251,0.0251,0.0252,0.0253,0,0.0631,0.0662,0.0715,0.078,0.0808,0.0854,0.095,0.1007,0.1049,0.1115,0.1125,0.1099,0.0986,0.0816,0.0614,0.0474,0.03,0.0223,0.0211,0.0167,0.0144,0.0147,0.0093,0.0092,0.0091,0.009,0.0089,0,0.0634,0.066,0.0732,0.0772,0.0802,0.0881,0.0945,0.1024,0.1094,0.1169,0.1204,0.1138,0.1084,0.0803,0.056,0.03,0.0274,0.0098,0.0063,0.0169,0.013,0.0135,0.014,-0.0011,-0.0013,-0.0014,-0.0015,0,0.0635,0.0655,0.0694,0.0772,0.0843,0.094,0.1042,0.1111,0.1216,0.1268,0.1331,0.1295,0.1052,0.0766,0.0432,0.0271,0.0145,0.0066,0.0168,0.005,0.0068,0.0031,0.0039,-0.0025,-0.0024,-0.0024,-0.0023,-0.0023,0.0626,0.0648,0.0701,0.0781,0.0869,0.1003,0.1099,0.1208,0.1323,0.1382,0.1356,0.1222,0.091,0.0422,0.0224,0.0059,0.0078,-0.0055,-0.005,-0.0045,-0.0027,-0.001,-0.0115,-0.0115,-0.0114,-0.0114,-0.0113,0,0.0615,0.0653,0.0717,0.0827,0.0935,0.0988,0.1169,0.1254,0.1391,0.1326,0.1313,0.0886,0.0573,0.0305,0.0034,-0.0135,-0.0121,-0.0183,-0.0171,-0.016,-0.015,-0.0136,-0.0255,-0.0256,-0.0256,-0.0256,0,0,0.0612,0.0657,0.0699,0.0865,0.0956,0.1131,0.1247,0.1351,0.1347,0.1227,0.1051,0.0788,0.0477,0.018,-0.0021,-0.012,-0.0082,-0.0124,-0.0001,0.0049,0.006,-0.0076,-0.0043,0,0,0,0,0]}],[{"header":{"parameterUnit":"m.s-1","parameterCategory":2,"la1":30.2991,"la2":30.254,"lo1":-89.0895,"lo2":-89.0444,"dy":0.0017,"dx":0.0017,"nx":28,"ny":28,"refTime":"2025-11-13T03:00:00:Z","depth":"4","parameterNumber":2,"parameterNumberName":"U-component_of_CURRENTS"},"data":[0,0,0,0,0,0,0,0,0,0,0,0,0,0,0,0,0,0,0,0,0,0,0,0,0,0,0,0,0,0,0,0,0,0,0,0,0,0,0,0,0,0,0,0,0,0,0,0,0,0,0,0,0,0,0,0,0,0,0.042,0.0421,0,0.0457,0.0457,0.0457,0.0507,0.0509,0.051,0.0511,0.0497,0.0496,0.0494,0,0,0,0,0,0,0,0,0,0,0,0,0,0.0323,0.0324,0.042,0.0421,0.0422,0.0457,0.0457,0.0457,0.0507,0.0509,0.051,0.0512,0.0498,0.0496,0.0494,0,0,0,0,0,0,0,0,0,0,0,0,0,0.0358,0.0325,0.042,0.0455,0.0459,0.0457,0.0457,0.0457,0.0507,0.0509,0.0511,0.0513,0.0498,0.0496,0.0494,0.0439,0,0,0.0486,0.0485,0,0,0,0,0,0,0,0,0.0356,0.0361,0.0449,0.0453,0.0457,0.0484,0.0418,0.045,0.0506,0.0483,0.0511,0.0514,0.049,0.0488,0.0484,0.0438,0.0438,0.0486,0.0485,0.0483,0.0483,0,0,0,0,0,0,0,0.0354,0.0359,0.043,0.045,0.0455,0.0445,0.0453,0.0424,0.047,0.0485,0.049,0.0502,0.0492,0.0486,0.0484,0.0437,0.0486,0.0484,0.0482,0.0481,0.0406,0.0405,0,0,0,0,0,0,0.0361,0.0357,0.0429,0.0431,0.0416,0.0446,0.0454,0.0469,0.0472,0.0476,0.0501,0.0505,0.049,0.0487,0.0484,0.0482,0.0483,0.0481,0.048,0.0406,0.0406,0.0405,0,0,0,0,0,0,0.0359,0.0367,0.0427,0.0399,0.0407,0.0447,0.0463,0.0469,0.0499,0.0485,0.0487,0.0529,0.0491,0.0487,0.0477,0.0479,0.048,0.0478,0.0407,0.0406,0.0405,0.0437,0,0,0,0,0,0,0.0356,0.0366,0.0391,0.04,0.0409,0.044,0.0462,0.0469,0.0503,0.051,0.0508,0.0508,0.0492,0.0481,0.0475,0.0476,0.0476,0.0408,0.0407,0.0406,0.0437,0.0437,0.0438,0,0,0,0,0,0.0352,0.0372,0.0392,0.0401,0.0438,0.0441,0.0444,0.0475,0.0503,0.051,0.0511,0.0509,0.047,0.0478,0.0471,0.0472,0.0408,0.0407,0.0406,0.0436,0.0437,0.0438,0,0,0,0,0,0,0.0348,0.038,0.0402,0.0434,0.0446,0.0452,0.047,0.0488,0.0495,0.0511,0.0499,0.0497,0.0486,0.047,0.048,0.0445,0.0439,0.0436,0.0465,0.0465,0.0466,0.0476,0.0474,0,0,0,0,0,0.0357,0.0378,0.0402,0.0427,0.0439,0.0459,0.0472,0.0491,0.0495,0.0504,0.0504,0.0494,0.0466,0.0464,0.0438,0.0419,0.0407,0.0414,0.0415,0.0416,0.0418,0.0391,0.039,0.0401,0.0401,0.0401,0,0,0.0361,0.0384,0.0397,0.0427,0.0443,0.0449,0.0471,0.0495,0.0498,0.0496,0.0507,0.0495,0.046,0.044,0.0434,0.0435,0.0409,0.0414,0.0415,0.0417,0.0389,0.0388,0.0388,0.04,0.04,0.04,0,0,0.036,0.0402,0.0413,0.0425,0.0457,0.0462,0.0476,0.0498,0.0512,0.0512,0.0506,0.0499,0.0474,0.0446,0.0426,0.0411,0.0409,0.0411,0.0428,0.0402,0.0402,0.0401,0.04,0.0399,0.0417,0.0417,0.0417,0,0.0371,0.0389,0.0414,0.0425,0.0439,0.047,0.0477,0.0481,0.0497,0.0501,0.0523,0.0487,0.0469,0.0425,0.043,0.0413,0.0412,0.0432,0.0405,0.0403,0.0402,0.0402,0.04,0.0418,0.0418,0.0418,0.0418,0,0.0361,0.039,0.0397,0.042,0.0432,0.0446,0.0458,0.0474,0.0502,0.0507,0.0498,0.0477,0.0464,0.0451,0.0441,0.0417,0.0426,0.0407,0.0408,0.0403,0.0403,0.0401,0.042,0.0419,0.0419,0.0419,0,0,0.0353,0.0387,0.0394,0.0409,0.0437,0.0443,0.0447,0.0453,0.0463,0.0479,0.0481,0.0449,0.0472,0.045,0.0437,0.0418,0.0418,0.0425,0.0423,0.0436,0.0389,0.0383,0.038,0.0405,0.0404,0.0403,0.04,0,0.0346,0.0364,0.0379,0.0395,0.0408,0.0432,0.043,0.0441,0.0457,0.0464,0.0451,0.0452,0.0459,0.0472,0.0453,0.0421,0.0412,0.0422,0.0383,0.0382,0.0385,0.0375,0.0401,0.0398,0.0397,0.0397,0.0397,0,0.0331,0.0349,0.0368,0.0394,0.0402,0.0417,0.0436,0.0439,0.0444,0.046,0.0468,0.0471,0.0458,0.0465,0.0425,0.0441,0.0428,0.0402,0.0401,0.0381,0.037,0.0398,0.0392,0.0393,0.0393,0.0393,0.0394,0,0.0309,0.034,0.0359,0.037,0.0399,0.0418,0.0438,0.0451,0.0454,0.0476,0.0487,0.0475,0.0481,0.0455,0.0429,0.044,0.0374,0.0374,0.0352,0.0352,0.0348,0.0348,0.0342,0.0342,0.0342,0.0342,0.0342,0,0.0291,0.0306,0.0362,0.0373,0.0398,0.0426,0.0449,0.0466,0.0481,0.0471,0.0504,0.0474,0.0482,0.0447,0.0425,0.0383,0.0376,0.0356,0.0344,0.0363,0.0365,0.0347,0.0348,0.0342,0.0342,0.0342,0.0342,0,0.026,0.0295,0.0319,0.037,0.0393,0.0418,0.0465,0.0465,0.05,0.0488,0.0502,0.0486,0.0451,0.0438,0.0384,0.038,0.0332,0.0315,0.035,0.034,0.0339,0.0341,0.0312,0.0312,0.0312,0.0311,0.0311,0,0.0243,0.0255,0.032,0.0343,0.0376,0.0421,0.0437,0.0477,0.0466,0.0462,0.0431,0.0425,0.0409,0.0341,0.0322,0.0303,0.0292,0.0303,0.0318,0.0341,0.0333,0.0335,0.0338,0.031,0.031,0.031,0.031,0,0.0202,0.0236,0.0259,0.0314,0.0351,0.0371,0.04,0.0394,0.0411,0.0436,0.0386,0.0382,0.0335,0.0309,0.0311,0.0277,0.0318,0.0299,0.0301,0.0315,0.0338,0.0331,0.0334,0.0309,0.0309,0.0309,0.0309,0,0.0175,0.0183,0.0227,0.0276,0.0319,0.0327,0.034,0.0335,0.0342,0.0354,0.0312,0.03,0.0302,0.0289,0.0252,0.0265,0.0274,0.0298,0.03,0.0301,0.0299,0.0326,0.0282,0,0,0,0,0,0.0147,0.0156,0.0183,0.023,0.0273,0.0298,0.031,0.0312,0.0325,0.0295,0.0323,0.0279,0.0274,0.0241,0.0253,0.0233,0.0264,0.0247,0.029,0.0302,0.0304,0.0301,0,0,0,0,0,0,0.0123,0.0146,0.0164,0.0198,0.0223,0.0247,0.0258,0.0254,0.0239,0.0262,0.0245,0.0289,0.0261,0.027,0.0253,0.0253,0.0285,0.0251,0.0252,0.0301,0.0303,0.0304,0.0302,0,0,0,0,0]},{"header":{"parameterUnit":"m.s-1","parameterCategory":2,"la1":30.2991,"la2":30.254,"lo1":-89.0895,"lo2":-89.0444,"dy":0.0017,"dx":0.0017,"nx":28,"ny":28,"refTime":"2025-11-13T03:00:00:Z","depth":"4","parameterNumber":3,"parameterNumberName":"V-component_of_CURRENTS"},"data":[0,0,0,0,0,0,0,0,0,0,0,0,0,0,0,0,0,0,0,0,0,0,0,0,0,0,0,0,0,0,0,0,0,0,0,0,0,0,0,0,0,0,0,0,0,0,0,0,0,0,0,0,0,0,0,0,0,0,0.0112,0.0111,0,0.0053,0.0052,0.0051,0.003,0.003,0.003,0.0031,-0.0028,-0.0029,-0.0031,0,0,0,0,0,0,0,0,0,0,0,0,0,0.0158,0.0157,0.0112,0.0111,0.0111,0.0053,0.0052,0.0051,0.003,0.003,0.0031,0.0031,-0.0027,-0.0029,-0.0031,0,0,0,0,0,0,0,0,0,0,0,0,0,0.0121,0.0157,0.0112,0.0094,0.0092,0.0053,0.0052,0.0051,0.003,0.003,0.0031,0.0031,-0.0026,-0.0029,-0.0032,-0.0059,0,0,-0.004,-0.0041,0,0,0,0,0,0,0,0,0.0123,0.0119,0.0097,0.0095,0.0093,0.0051,0.0047,0.0015,0.0029,0.0052,0.0031,0.0031,-0.0001,-0.0006,-0.002,-0.0062,-0.0064,-0.004,-0.0042,-0.0043,-0.0044,0,0,0,0,0,0,0,0.0126,0.0121,0.0087,0.0097,0.0094,0.0073,0.0068,0.004,0.0022,0.005,0.0049,0.0044,-0.0002,-0.0017,-0.0021,-0.0065,-0.004,-0.0043,-0.0045,-0.0046,-0.0156,-0.0158,0,0,0,0,0,0,0.0138,0.0124,0.0089,0.0085,0.0111,0.0072,0.0067,0.0062,0.0023,0.0017,0.0044,0.0043,-0.0013,-0.0018,-0.0024,-0.0077,-0.0043,-0.0046,-0.0048,-0.0155,-0.0157,-0.0158,0,0,0,0,0,0,0.0139,0.0135,0.0091,0.0105,0.0098,0.0071,0.0066,0.0061,0.0037,0.0018,0.0013,0.0025,-0.0013,-0.002,-0.006,-0.0078,-0.0047,-0.005,-0.0154,-0.0156,-0.0157,-0.0172,0,0,0,0,0,0,0.0141,0.0136,0.0132,0.0105,0.0098,0.006,0.0065,0.006,0.0035,0.0034,-0.0,-0.0004,-0.0013,-0.0056,-0.0063,-0.0082,-0.0052,-0.0152,-0.0155,-0.0157,-0.017,-0.0174,-0.0177,0,0,0,0,0,0.0143,0.0133,0.0132,0.0127,0.0094,0.0059,0.0052,0.0034,0.0034,0.0015,-0.0006,-0.0004,-0.0076,-0.006,-0.0067,-0.0087,-0.0151,-0.0154,-0.0157,-0.0168,-0.0173,-0.0177,0,0,0,0,0,0,0.0147,0.0129,0.0128,0.0113,0.0086,0.0056,0.0038,0.0026,-0.0007,-0.001,-0.0023,-0.003,-0.0073,-0.0082,-0.0064,-0.0127,-0.0112,-0.0117,-0.0118,-0.0123,-0.0127,-0.0117,-0.0054,0,0,0,0,0,0.0148,0.0137,0.0114,0.0099,0.0087,0.0061,0.0043,0.0028,-0.0,-0.0014,-0.0038,-0.0064,-0.0091,-0.0107,-0.0135,-0.0172,-0.0168,-0.019,-0.0194,-0.0197,-0.0195,-0.0209,-0.0214,-0.0167,-0.0167,-0.0167,0,0,0.0145,0.0134,0.0126,0.0099,0.0078,0.0055,0.005,0.0017,-0.0004,-0.0016,-0.0057,-0.0082,-0.0105,-0.0145,-0.0165,-0.0155,-0.0209,-0.0201,-0.0203,-0.0199,-0.0213,-0.0217,-0.0221,-0.0169,-0.0169,-0.0169,0,0,0.0131,0.0123,0.0108,0.0087,0.0056,0.004,0.0029,-0.001,-0.0028,-0.007,-0.0083,-0.0118,-0.0164,-0.0182,-0.0196,-0.024,-0.0231,-0.0252,-0.0262,-0.0276,-0.0279,-0.0282,-0.028,-0.0282,-0.0251,-0.0251,-0.0251,0,0.0127,0.011,0.0095,0.0075,0.0058,0.0034,0.001,-0.0014,-0.0062,-0.0081,-0.0085,-0.0157,-0.0179,-0.0218,-0.0234,-0.0248,-0.0248,-0.0239,-0.0279,-0.0282,-0.0285,-0.0281,-0.0284,-0.0252,-0.0252,-0.0252,-0.0252,0,0.0103,0.0088,0.0074,0.0049,0.0026,-0.0002,-0.0029,-0.0058,-0.0081,-0.0105,-0.0157,-0.0191,-0.0229,-0.0246,-0.0253,-0.029,-0.0281,-0.0282,-0.0261,-0.029,-0.0285,-0.0287,-0.0254,-0.0253,-0.0253,-0.0253,0,0,0.0095,0.0065,0.006,0.0048,0.001,-0.0012,-0.0044,-0.0082,-0.0103,-0.015,-0.0181,-0.0235,-0.0253,-0.027,-0.0289,-0.0305,-0.0326,-0.0302,-0.0303,-0.0289,-0.0346,-0.0334,-0.0335,-0.0333,-0.0333,-0.0334,-0.0332,0,0.0079,0.0052,0.0036,0.0002,-0.0016,-0.0042,-0.0069,-0.0105,-0.0136,-0.0173,-0.0208,-0.0246,-0.0261,-0.0281,-0.0302,-0.0323,-0.0334,-0.0326,-0.0329,-0.0329,-0.0307,-0.0339,-0.0336,-0.0334,-0.0334,-0.0335,-0.0335,0,0.0059,0.0046,0.0019,-0.0014,-0.0025,-0.0046,-0.0088,-0.0116,-0.0163,-0.0187,-0.0228,-0.0255,-0.0294,-0.0298,-0.0338,-0.0332,-0.0341,-0.035,-0.035,-0.0335,-0.0323,-0.0302,-0.0339,-0.0339,-0.0339,-0.0338,-0.0338,0,0.0065,0.0029,0.0013,0.0001,-0.0037,-0.0054,-0.0077,-0.0121,-0.0143,-0.0191,-0.0209,-0.0263,-0.0282,-0.0312,-0.0332,-0.0339,-0.0361,-0.037,-0.0365,-0.0364,-0.0365,-0.0362,-0.0392,-0.0392,-0.0392,-0.0392,-0.0392,0,0.0055,0.0036,0.0018,0.0009,-0.0014,-0.0045,-0.0075,-0.0103,-0.0142,-0.0164,-0.0211,-0.0232,-0.0287,-0.0307,-0.033,-0.035,-0.0357,-0.0371,-0.0368,-0.0371,-0.0369,-0.0366,-0.0363,-0.0392,-0.0392,-0.0392,-0.0392,0,0.0055,0.0043,0.0024,-0.0003,-0.001,-0.0026,-0.006,-0.0084,-0.0116,-0.0142,-0.0153,-0.0208,-0.024,-0.0278,-0.0317,-0.0338,-0.036,-0.0359,-0.0345,-0.0341,-0.0356,-0.0354,-0.0372,-0.0371,-0.0371,-0.0371,-0.0371,0,0.0048,0.0043,0.0028,0.0022,0.001,-0.0013,-0.003,-0.0066,-0.0082,-0.0122,-0.013,-0.017,-0.0206,-0.0249,-0.0294,-0.0334,-0.0339,-0.0347,-0.0376,-0.0361,-0.0356,-0.0355,-0.0353,-0.037,-0.037,-0.037,-0.037,0,0.0036,0.0038,0.0026,0.0029,0.0016,-0.0008,-0.0027,-0.0033,-0.0069,-0.0084,-0.0114,-0.0156,-0.019,-0.0245,-0.0268,-0.0299,-0.0348,-0.0345,-0.0346,-0.0374,-0.0359,-0.0355,-0.0354,-0.0369,-0.0369,-0.0369,-0.037,0,0.0027,0.0021,0.0022,0.0019,0.0013,-0.0008,-0.0021,-0.0042,-0.0059,-0.0087,-0.0089,-0.014,-0.0168,-0.0225,-0.0246,-0.0278,-0.0301,-0.0317,-0.032,-0.0322,-0.0314,-0.0288,-0.0278,0,0,0,0,0,0.0014,0.0008,0.0007,-0.0003,-0.0002,-0.001,-0.0024,-0.0038,-0.0045,-0.0061,-0.0077,-0.0108,-0.0171,-0.0202,-0.0233,-0.0253,-0.0308,-0.0291,-0.0329,-0.0365,-0.0366,-0.0364,0,0,0,0,0,0,-0.0001,-0.0002,0.0002,-0.0009,-0.0017,-0.0033,-0.0043,-0.0056,-0.0064,-0.0068,-0.0098,-0.0112,-0.017,-0.0147,-0.0231,-0.0243,-0.0271,-0.0317,-0.0318,-0.0364,-0.0365,-0.0366,-0.0365,0,0,0,0,0]}]]